Weather History for Monett, MO

Change the Weather History Date:

Sunday, March 24, 2013

  Actual Average (KJLN) Record (KJLN)
Temperature  
Mean Temperature 32 °F 51 °F  
Max Temperature 37 °F 63 °F 82 °F (2003)
Min Temperature 26 °F 40 °F 11 °F (1974)
Degree Days  
Heating Degree Days 34 14  
Month to date heating degree days 417  
Since 1 July heating degree days 3671  
Cooling Degree Days 0 0  
Month to date cooling degree days 0  
Year to date cooling degree days 1  
Moisture  
Dew Point 29 °F    
Average Humidity 91    
Maximum Humidity 100    
Minimum Humidity 74    
Precipitation  
Precipitation 0.12 in 0.11 in 1.40 in (1973)
Month to date precipitation 2.56  
Year to date precipitation 6.91  
Sea Level Pressure  
Sea Level Pressure 29.83 in    
Wind  
Wind Speed 10 mph (NW)    
Max Wind Speed 24 mph    
Max Gust Speed 34 mph    
Visibility 5 miles    
Events Rain , Snow    
T = Trace of Precipitation, MM = Missing Value Source: NWS Daily Summary

Daily Weather History Graph

Daily Weather History Graph

Search for Another Location

Airport:

Trip Planner

Search our weather history database for the weather conditions in past years. The results will help you decide how hot, cold, wet, or windy it might be!

Date:

Astronomy

Mar. 24, 2013 Rise Set
Actual Time 7:13 AM CDT 7:31 PM CDT
Civil Twilight 6:47 AM CDT 7:57 PM CDT
Nautical Twilight 6:17 AM CDT 8:28 PM CDT
Astronomical Twilight 5:46 AM CDT 8:59 PM CDT
Moon 5:03 PM CDT (3/24) 5:20 AM CDT (3/24)
Length of Visible Light 13h 10m
Length of Day
12h 18m
Waxing Gibbous, 92% of the Moon is Illuminated
Mar 24
Waxing Gibbous
Mar 27
Full
Apr 2
Last Quarter
Apr 10
New
Apr 18
First Quarter

Hourly Weather History & Observations

Time (CDT) Temp. Windchill Dew Point Humidity Pressure Visibility Wind Dir Wind Speed Gust Speed Precip Events Conditions
12:15 AM 37.4 °F 34.9 °F 37.4 °F 100% 29.75 in 7.0 mi NW 3.5 mph - N/A   Overcast
12:35 AM 37.4 °F - 37.4 °F 100% 29.74 in 4.0 mi Calm Calm - N/A   Overcast
12:55 AM 37.4 °F 34.9 °F 37.4 °F 100% 29.71 in 2.5 mi NE 3.5 mph - N/A   Drizzle
1:15 AM 37.4 °F 32.8 °F 37.4 °F 100% 29.75 in 1.8 mi NW 5.8 mph - N/A   Drizzle
1:35 AM 37.4 °F 32.1 °F 37.4 °F 100% 29.71 in 1.5 mi NE 6.9 mph - 0.01 in Rain Rain
1:55 AM 37.4 °F 32.8 °F 35.6 °F 93% 29.71 in 3.0 mi NE 5.8 mph - 0.02 in Rain Rain
2:15 AM 37.4 °F 32.8 °F 37.4 °F 100% 29.67 in 3.0 mi NNE 5.8 mph - N/A   Overcast
2:35 AM 37.4 °F - 37.4 °F 100% 29.69 in 4.0 mi Calm Calm - N/A   Overcast
2:55 AM 37.4 °F - 37.4 °F 100% 29.70 in 3.0 mi Calm Calm - 0.01 in Rain Rain
3:15 AM 37.4 °F 32.1 °F 35.6 °F 93% 29.66 in 3.0 mi East 6.9 mph - 0.02 in Rain Light Rain
3:35 AM 37.4 °F 33.8 °F 37.4 °F 100% 29.61 in 4.0 mi NE 4.6 mph - 0.02 in Rain Light Rain
3:55 AM 37.4 °F - 37.4 °F 100% 29.63 in 5.0 mi Calm Calm - 0.02 in   Overcast
4:15 AM 37.4 °F - 37.4 °F 100% 29.62 in 4.0 mi Calm Calm - N/A Snow Heavy Snow
4:55 AM 37.4 °F 33.8 °F 37.4 °F 100% 29.61 in 1.0 mi WSW 4.6 mph - 0.03 in Rain Rain
5:15 AM 37.4 °F 33.8 °F 37.4 °F 100% 29.61 in 3.0 mi West 4.6 mph - 0.01 in Rain Light Rain
5:35 AM 37.4 °F 31.4 °F 37.4 °F 100% 29.62 in 2.5 mi West 8.1 mph - 0.02 in Rain Light Rain
5:55 AM 35.6 °F 28.0 °F 35.6 °F 100% 29.61 in 4.0 mi West 10.4 mph - 0.02 in Rain Rain
6:15 AM 33.8 °F 25.3 °F 33.8 °F 100% 29.62 in 4.0 mi West 11.5 mph - 0.01 in Rain Light Rain
6:35 AM 32.0 °F 23.6 °F 32.0 °F 100% 29.63 in 2.0 mi WNW 10.4 mph 18.4 mph 0.01 in Snow Light Snow
6:55 AM 32.0 °F 24.2 °F 32.0 °F 100% 29.63 in 1.0 mi NW 9.2 mph - 0.02 in Snow Snow
7:15 AM 32.0 °F 23.6 °F 32.0 °F 100% 29.63 in 1.2 mi NW 10.4 mph - N/A Snow Light Snow
7:35 AM 32.0 °F 23.0 °F 32.0 °F 100% 29.64 in 3.0 mi NW 11.5 mph - N/A Snow Light Snow
7:55 AM 32.0 °F 22.1 °F 32.0 °F 100% 29.65 in 1.0 mi WNW 13.8 mph - N/A Snow Light Snow
8:15 AM 32.0 °F 22.1 °F 32.0 °F 100% 29.66 in 0.8 mi WNW 13.8 mph 18.4 mph N/A Snow Light Snow
8:35 AM 32.0 °F 22.1 °F 32.0 °F 100% 29.67 in 0.8 mi NW 13.8 mph - N/A Snow Light Snow
8:55 AM 32.0 °F 20.5 °F 32.0 °F 100% 29.69 in 1.8 mi NW 18.4 mph 23.0 mph N/A Snow Light Snow
9:15 AM 32.0 °F 19.8 °F 30.2 °F 93% 29.71 in 1.2 mi NW 20.7 mph 24.2 mph N/A Snow Light Snow
9:35 AM 32.0 °F 19.5 °F 30.2 °F 93% 29.73 in 1.0 mi NNW 21.9 mph 27.6 mph N/A Snow Light Snow
9:55 AM 32.0 °F 19.8 °F 30.2 °F 93% 29.74 in 0.5 mi NW 20.7 mph 29.9 mph N/A Snow Snow
10:15 AM 32.0 °F 21.2 °F 30.2 °F 93% 29.76 in 0.8 mi NW 16.1 mph 31.1 mph N/A Snow Light Snow
10:35 AM 30.2 °F 18.1 °F 30.2 °F 100% 29.78 in 0.8 mi NW 18.4 mph 28.8 mph N/A Snow Light Snow
10:55 AM 30.2 °F 17.1 °F 30.2 °F 100% 29.79 in 0.8 mi NW 21.9 mph 28.8 mph N/A Snow Light Snow
11:15 AM 30.2 °F 17.4 °F 28.4 °F 93% 29.81 in 1.5 mi NW 20.7 mph 27.6 mph N/A Snow Light Snow
11:35 AM 30.2 °F 17.8 °F 28.4 °F 93% 29.82 in 2.0 mi NW 19.6 mph 28.8 mph N/A Snow Light Snow
11:55 AM 30.2 °F 17.8 °F 28.4 °F 93% 29.84 in 2.0 mi NW 19.6 mph 33.4 mph N/A Snow Light Snow
12:15 PM 30.2 °F 17.1 °F 28.4 °F 93% 29.84 in 1.5 mi NW 21.9 mph 28.8 mph N/A Snow Light Snow
12:35 PM 30.2 °F 17.1 °F 28.4 °F 93% 29.85 in 1.8 mi NW 21.9 mph 27.6 mph N/A   Overcast
12:55 PM 30.2 °F 17.8 °F 28.4 °F 93% 29.87 in 7.0 mi NW 19.6 mph 32.2 mph N/A   Overcast
1:15 PM 30.2 °F 18.1 °F 28.4 °F 93% 29.88 in 4.0 mi NW 18.4 mph 28.8 mph N/A   Overcast
1:35 PM 30.2 °F 17.4 °F 28.4 °F 93% 29.88 in 1.8 mi NW 20.7 mph 29.9 mph N/A   Overcast
1:55 PM 32.0 °F 20.5 °F 28.4 °F 87% 29.89 in 1.5 mi NW 18.4 mph 24.2 mph N/A Snow Light Snow
2:15 PM 32.0 °F 20.5 °F 28.4 °F 87% 29.90 in 3.0 mi NW 18.4 mph 26.5 mph N/A   Overcast
2:35 PM 32.0 °F 18.9 °F 28.4 °F 87% 29.90 in 5.0 mi NW 24.2 mph 27.6 mph N/A   Overcast
2:55 PM 32.0 °F 20.1 °F 28.4 °F 87% 29.91 in 4.0 mi NW 19.6 mph 26.5 mph N/A   Overcast
3:15 PM 32.0 °F 20.5 °F 28.4 °F 87% 29.91 in 5.0 mi WNW 18.4 mph 28.8 mph N/A   Overcast
3:35 PM 30.2 °F 18.9 °F 28.4 °F 93% 29.92 in 5.0 mi WNW 16.1 mph 25.3 mph N/A   Overcast
3:55 PM 30.2 °F 17.8 °F 28.4 °F 93% 29.92 in 7.0 mi NW 19.6 mph 32.2 mph N/A   Overcast
4:15 PM 30.2 °F 17.8 °F 28.4 °F 93% 29.92 in 4.0 mi WNW 19.6 mph - N/A   Overcast
4:35 PM 30.2 °F 18.1 °F 28.4 °F 93% 29.93 in 5.0 mi WNW 18.4 mph 29.9 mph N/A   Overcast
4:55 PM 30.2 °F 17.8 °F 26.6 °F 86% 29.94 in 10.0 mi WNW 19.6 mph 27.6 mph N/A   Overcast
5:15 PM 30.2 °F 18.9 °F 26.6 °F 86% 29.95 in 10.0 mi WNW 16.1 mph 34.5 mph N/A   Overcast
5:35 PM 30.2 °F 18.9 °F 26.6 °F 86% 29.95 in 10.0 mi WNW 16.1 mph 28.8 mph N/A   Overcast
5:55 PM 30.2 °F 17.4 °F 24.8 °F 80% 29.96 in 10.0 mi NW 20.7 mph 29.9 mph N/A   Overcast
6:15 PM 30.2 °F 17.8 °F 23.0 °F 75% 29.96 in 10.0 mi NW 19.6 mph 26.5 mph N/A   Overcast
6:35 PM 30.2 °F 18.1 °F 23.0 °F 75% 29.98 in 10.0 mi NW 18.4 mph 27.6 mph N/A   Overcast
6:55 PM 30.2 °F 18.5 °F 24.8 °F 80% 29.99 in 10.0 mi WNW 17.3 mph 24.2 mph N/A   Overcast
7:15 PM 30.2 °F 18.5 °F 23.0 °F 75% 30.00 in 10.0 mi WNW 17.3 mph 25.3 mph N/A   Overcast
7:35 PM 28.4 °F 16.6 °F 23.0 °F 80% 30.01 in 10.0 mi NW 16.1 mph 24.2 mph N/A   Overcast
7:55 PM 28.4 °F 14.4 °F 21.2 °F 74% 30.03 in 10.0 mi NW 23.0 mph 29.9 mph N/A   Overcast
8:15 PM 28.4 °F 17.0 °F 21.2 °F 74% 30.04 in 10.0 mi NW 15.0 mph 26.5 mph N/A   Overcast
8:55 PM 28.4 °F 17.0 °F 23.0 °F 80% 30.05 in 10.0 mi WNW 15.0 mph - N/A   Overcast
9:15 PM 28.4 °F 15.8 °F 21.2 °F 74% 30.05 in 10.0 mi WNW 18.4 mph 25.3 mph N/A   Overcast
9:35 PM 28.4 °F 18.0 °F 21.2 °F 74% 30.06 in 10.0 mi WNW 12.7 mph - N/A   Overcast
9:55 PM 28.4 °F 17.0 °F 21.2 °F 74% 30.07 in 10.0 mi WNW 15.0 mph - N/A   Overcast
10:15 PM 28.4 °F 18.5 °F 21.2 °F 74% 30.07 in 10.0 mi WNW 11.5 mph - N/A   Overcast
10:35 PM 28.4 °F 18.5 °F 21.2 °F 74% 30.07 in 10.0 mi WNW 11.5 mph - N/A   Mostly Cloudy
10:55 PM 28.4 °F 19.1 °F 21.2 °F 74% 30.08 in 10.0 mi West 10.4 mph - N/A   Clear
11:15 PM 26.6 °F 16.2 °F 21.2 °F 80% 30.08 in 10.0 mi West 11.5 mph - N/A   Clear
11:35 PM 26.6 °F 17.5 °F 21.2 °F 80% 30.08 in 10.0 mi West 9.2 mph - N/A   Clear
11:55 PM 26.6 °F 16.8 °F 21.2 °F 80% 30.08 in 10.0 mi West 10.4 mph - N/A   Clear